Flag for China Weather past 2 weeks in Taiyuan, China

Now
63 °F

Haze.


Feels Like: 63 °F
Forecast: 46 / 76 °F
Wind: 6 mph from Southwest

Location: Taiyuan Airport


UV Index: 5 (Moderate)

Visibility: 2 mi


Pressure: 29.89 "Hg

Humidity: 68%

Dew point: 52 °F

Location of TaiyuanLocation

Historic Weather in Taiyuan

°F

Taiyuan temperature yesterday

Maximum temperature yesterday: 61 °F (at 2:30 PM)
Minimum temperature yesterday: 48 °F (at 3:30 AM)
Average temperature yesterday: 54 °F

Past Weeks' High & Low Weather Summary

 TemperatureHumidityPressure
High81 °F (Apr 9, 3:00 PM)94% (Apr 13, 3:00 AM)30.30 "Hg (Apr 13, 3:00 AM)
Low34 °F (Apr 4, 6:00 AM)7% (Apr 3, 3:30 PM)29.83 "Hg (Apr 9, 3:30 PM)
Average56 °F48%30.04 "Hg
* Reported Apr 2 12:00 Noon — Apr 17 12:30 PM, Taiyuan, Weather by CustomWeather, © 2014

Note: Actual official high and low records may vary slightly from our data, if they occured in-between our weather recording intervals... More about our weather records

Advertising

Historic Weather Conditions — Data for Previous 24 hours

 ConditionsComfort  
Time TempWeatherWind HumidityBarometerVisibility
12:30 PM
Apr 17
63 °FHaze.6 mph64%29.89 "Hg2 mi
12:00 PM63 °FHaze.3 mph64%29.89 "Hg2 mi
11:30 AM61 °FHaze.3 mph68%29.89 "Hg2 mi
11:00 AM61 °FHaze.3 mph68%29.89 "Hg2 mi
10:30 AM59 °FHaze.3 mph72%29.89 "Hg2 mi
10:00 AM59 °FHaze.3 mph68%29.89 "Hg2 mi
9:30 AM57 °FFog.1 mph77%29.89 "Hg1 mi
9:00 AM55 °FFog.1 mph82%29.89 "Hg1 mi
8:30 AM54 °FFog.3 mph88%29.89 "Hg1 mi
8:00 AM54 °FFog.3 mph82%29.86 "Hg1 mi
7:30 AM52 °FFog.3 mph94%29.86 "Hg1 mi
7:00 AM52 °FFog.1 mph88%29.83 "Hg1 mi
6:30 AM52 °FFog.1 mph88%29.83 "Hg1 mi
6:00 AM52 °FFog.1 mph88%29.83 "Hg1 mi
5:30 AM52 °FFog.3 mph88%29.83 "Hg1 mi
5:00 AM52 °FFog.1 mph88%29.83 "Hg1 mi
4:30 AM52 °FFog.1 mph88%29.83 "Hg1 mi
4:00 AM52 °FFog.1 mph88%29.83 "Hg1 mi
3:30 AM52 °FFog.3 mph88%29.83 "Hg1 mi
3:00 AM52 °FFog.3 mph88%29.83 "Hg1 mi
2:30 AM52 °FFog.3 mph88%29.83 "Hg1 mi
2:00 AM52 °FFog.3 mph88%29.83 "Hg1 mi
1:30 AM52 °FFog.1 mph88%29.83 "Hg1 mi
1:00 AM52 °FFog.3 mph88%29.86 "Hg1 mi
12:30 AM52 °FFog.3 mph88%29.86 "Hg1 mi
12:00 AM52 °FFog.3 mph88%29.86 "Hg1 mi
11:30 PM
Apr 16
52 °FFog.3 mph88%29.86 "Hg1 mi
11:00 PM52 °FSprinkles. Fog.3 mph88%29.86 "Hg1 mi
10:30 PM52 °FSprinkles. Fog.3 mph94%29.89 "Hg1 mi
10:00 PM52 °FSprinkles. Fog.3 mph88%29.89 "Hg1 mi
9:00 PM52 °FSprinkles. Fog.3 mph88%29.89 "Hg1 mi
8:30 PM52 °FSprinkles. Fog.3 mph88%29.89 "Hg1 mi
8:00 PM52 °FSprinkles. Fog.8 mph88%29.89 "Hg1 mi
7:30 PM54 °FSprinkles. Fog.8 mph82%29.86 "Hg1 mi
7:00 PM57 °FSprinkles. Overcast.3 mph67%29.83 "Hg2 mi
6:30 PM57 °FHaze.3 mph63%29.83 "Hg2 mi
6:00 PM57 °FHaze.3 mph63%29.83 "Hg3 mi
5:30 PM59 °FClear.3 mph55%29.83 "Hg4 mi
5:00 PM59 °FClear.3 mph55%29.83 "Hg4 mi
4:30 PM59 °FClear.3 mph55%29.83 "Hg4 mi
4:00 PM61 °FClear.3 mph48%29.83 "Hg5 mi
3:30 PM61 °FClear.1 mph48%29.86 "Hg5 mi
3:00 PM61 °FClear.1 mph48%29.86 "Hg5 mi
2:30 PM61 °FClear.1 mph48%29.89 "Hg5 mi
2:00 PM59 °FClear.1 mph51%29.89 "Hg5 mi
1:30 PM59 °FClear.1 mph51%29.92 "Hg4 mi
1:00 PM59 °FClear.1 mph51%29.92 "Hg4 mi
Weather by CustomWeather, © 2014

See weather overview